Location: Eastlake (historical)
(39.0077°N, 122.6678°W)
Time: 09:45:54
(UTC+00:00)

MOS 1-B - Pass Details

Date: 25 November 2020
Orbit: 905 x 914 km, 99.4° (Epoch: 26 January)

Event Time Altitude Azimuth Distance (km) Brightness Sun altitude
Rises 14:16:36 0° 13° (NNE) 3,557 7.4 -9.5°
Reaches altitude 10° 14:19:02 10° 13° (NNE) 2,611 6.7 -9.1°
Maximum altitude 14:24:52 86° 286° (WNW) 921 4.4 -8.0°
Drops below altitude 10° 14:30:40 10° 198° (SSW) 2,591 6.8 -7.0°
Sets 14:33:03 0° 198° (SSW) 3,528 7.5 -6.5°
